QPF
0.01 0.01 0.01 0.00 0.00 0.00 0.01 0.00 0.00 0.00 0.00 0.01 0.01 0.02 0.02 0.02 0.00 0.00 0.00 0.00 0.01 0.01 0.00 0.00 0.00 0.00 0.00 0.00 0.00 0.00 0.00 0.00 0.00 0.00 0.00 0.00 0.00 0.00 0.00 0.00 0.00 0.00 0.00 0.00 0.00 0.00 0.00 0.00 0.00 0.00 0.00 0.00 0.00 0.00
0.01 0.01 0.02 0.00 0.00 0.00 0.00 0.00 0.00 0.00 0.01 0.01 0.01 0.02 0.03 0.02 0.00 0.00 0.00 0.00 0.02 0.01 0.01 0.00 0.00 0.00 0.00 0.00 0.00 0.00 0.00 0.00 0.00 0.00 0.00 0.00 0.00 0.00 0.00 0.00 0.00 0.00 0.00 0.00 0.00 0.00 0.00 0.00 0.00 0.00 0.00 0.00 0.00 0.00
0.01 0.02 0.01 0.01 0.00 0.00 0.00 0.00 0.00 0.01 0.01 0.01 0.01 0.01 0.02 0.02 0.01 0.00 0.00 0.00 0.00 0.00 0.01 0.00 0.00 0.00 0.00 0.00 0.00 0.00 0.00 0.00 0.00 0.00 0.00 0.00 0.00 0.00 0.00 0.00 0.00 0.00 0.00 0.00 0.00 0.00 0.00 0.00 0.00 0.00 0.00 0.00 0.00 0.00
0.01 0.01 0.01 0.01 0.00 0.00 0.00 0.00 0.00 0.00 0.00 0.01 0.00 0.00 0.01 0.01 0.01 0.00 0.00 0.00 0.00 0.00 0.00 0.00 0.00 0.00 0.00 0.00 0.00 0.00 0.00 0.00 0.00 0.00 0.00 0.00 0.00 0.00 0.00 0.00 0.00 0.00 0.00 0.00 0.00 0.00 0.00 0.00 0.00 0.00 0.00 0.00 0.00 0.00
0.01 0.00 0.01 0.01 0.00 0.00 0.00 0.00 0.00 0.00 0.00 0.00 0.00 0.00 0.00 0.00 0.00 0.00 0.00 0.00 0.00 0.00 0.00 0.00 0.00 0.00 0.00 0.00 0.00 0.00 0.00 0.00 0.00 0.00 0.00 0.00 0.00 0.00 0.00 0.00 0.00 0.00 0.00 0.00 0.00 0.00 0.00 0.00 0.00 0.00 0.00 0.00 0.00 0.00
0.00 0.00 0.00 0.00 0.00 0.00 0.00 0.00 0.00 0.00 0.00 0.00 0.00 0.00 0.00 0.00 0.00 0.00 0.00 0.00 0.00 0.00 0.00 0.00 0.00 0.00 0.00 0.00 0.00 0.00 0.00 0.00 0.00 0.00 0.00 0.00 0.00 0.00 0.00 0.00 0.00 0.00 0.00 0.00 0.00 0.00 0.00 0.00 0.00 0.00 0.00 0.00 0.00 0.00
0.00 0.00 0.00 0.00 0.00 0.00 0.00 0.00 0.00 0.00 0.00 0.00 0.00 0.00 0.00 0.00 0.00 0.00 0.00 0.00 0.00 0.00 0.00 0.00 0.00 0.00 0.00 0.00 0.00 0.00 0.00 0.00 0.00 0.00 0.00 0.00 0.00 0.00 0.00 0.00 0.00 0.00 0.00 0.00 0.00 0.00 0.00 0.00 0.00 0.00 0.00 0.00 0.00 0.00
0.00 0.00 0.00 0.00 0.00 0.00 0.00 0.00 0.00 0.00 0.00 0.00 0.00 0.00 0.00 0.00 0.00 0.00 0.00 0.00 0.00 0.00 0.00 0.00 0.00 0.00 0.00 0.00 0.00 0.00 0.00 0.00 0.00 0.00 0.00 0.00 0.00 0.00 0.00 0.00 0.00 0.00 0.00 0.00 0.00 0.00 0.00 0.00 0.00 0.00 0.00 0.00 0.00 0.00
0.00 0.00 0.00 0.00 0.00 0.00 0.00 0.00 0.00 0.00 0.00 0.00 0.00 0.00 0.00 0.00 0.00 0.00 0.00 0.00 0.00 0.00 0.00 0.00 0.00 0.00 0.00 0.00 0.00 0.00 0.00 0.00 0.00 0.00 0.00 0.00 0.00 0.00 0.00 0.00 0.00 0.00 0.00 0.00 0.00 0.00 0.00 0.00 0.00 0.00 0.00 0.00 0.00 0.00
0.00 0.00 0.00 0.00 0.00 0.00 0.00 0.00 0.00 0.00 0.00 0.00 0.00 0.00 0.00 0.00 0.00 0.00 0.00 0.00 0.00 0.00 0.00 0.00 0.00 0.00 0.00 0.00 0.00 0.00 0.00 0.00 0.00 0.00 0.00 0.00 0.00 0.00 0.00 0.00 0.00 0.00 0.00 0.00 0.00 0.00 0.00 0.00 0.00 0.00 0.00 0.00 0.00 0.00
0.00 0.00 0.00 0.00 0.00 0.00 0.00 0.00 0.00 0.00 0.00 0.00 0.00 0.00 0.00 0.00 0.00 0.00 0.00 0.00 0.00 0.00 0.00 0.00 0.00 0.00 0.00 0.00 0.00 0.00 0.00 0.00 0.00 0.00 0.00 0.00 0.00 0.00 0.00 0.00 0.00 0.00 0.00 0.00 0.00 0.00 0.00 0.00 0.00 0.00 0.00 0.00 0.00 0.00
0.00 0.00 0.00 0.00 0.00 0.00 0.00 0.00 0.00 0.00 0.00 0.00 0.00 0.00 0.00 0.00 0.00 0.00 0.00 0.00 0.00 0.00 0.00 0.00 0.00 0.00 0.00 0.00 0.00 0.00 0.00 0.00 0.00 0.00 0.00 0.00 0.00 0.00 0.00 0.00 0.00 0.00 0.00 0.00 0.00 0.00 0.00 0.00 0.00 0.00 0.00 0.00 0.00 0.00
0.00 0.00 0.00 0.00 0.00 0.00 0.00 0.00 0.00 0.00 0.00 0.00 0.00 0.00 0.00 0.00 0.00 0.00 0.00 0.00 0.00 0.00 0.00 0.00 0.00 0.00 0.00 0.00 0.00 0.00 0.00 0.00 0.00 0.00 0.00 0.00 0.00 0.00 0.00 0.00 0.00 0.00 0.00 0.00 0.00 0.00 0.00 0.00 0.00 0.00 0.00 0.00 0.00 0.00
0.00 0.00 0.00 0.00 0.00 0.00 0.00 0.00 0.00 0.00 0.00 0.00 0.00 0.00 0.00 0.00 0.00 0.00 0.01 0.01 0.00 0.00 0.00 0.00 0.00 0.00 0.00 0.00 0.00 0.00 0.00 0.00 0.00 0.00 0.00 0.00 0.00 0.00 0.00 0.00 0.00 0.00 0.00 0.00 0.00 0.00 0.00 0.00 0.00 0.00 0.00 0.00 0.00 0.00
0.00 0.00 0.00 0.00 0.00 0.00 0.00 0.00 0.00 0.00 0.00 0.00 0.00 0.00 0.01 0.00 0.00 0.00 0.00 0.00 0.00 0.00 0.00 0.00 0.00 0.00 0.00 0.00 0.00 0.00 0.00 0.00 0.00 0.00 0.00 0.00 0.00 0.00 0.00 0.00 0.00 0.00 0.00 0.00 0.00 0.00 0.00 0.00 0.00 0.00 0.00 0.00 0.00 0.00
0.00 0.00 0.00 0.00 0.00 0.00 0.00 0.00 0.00 0.00 0.00 0.00 0.00 0.01 0.00 0.00 0.00 0.00 0.00 0.00 0.00 0.01 0.00 0.00 0.00 0.00 0.00 0.00 0.00 0.00 0.00 0.00 0.00 0.00 0.00 0.00 0.00 0.00 0.00 0.00 0.00 0.00 0.00 0.00 0.00 0.00 0.00 0.00 0.00 0.00 0.00 0.00 0.00 0.00
0.00 0.00 0.00 0.00 0.00 0.00 0.00 0.00 0.00 0.00 0.00 0.00 0.00 0.00 0.00 0.00 0.00 0.00 0.00 0.00 0.00 0.01 0.01 0.00 0.00 0.00 0.00 0.00 0.00 0.00 0.00 0.00 0.00 0.00 0.00 0.00 0.00 0.00 0.00 0.00 0.00 0.00 0.00 0.00 0.00 0.00 0.00 0.00 0.00 0.00 0.00 0.00 0.00 0.00
0.00 0.00 0.00 0.00 0.00 0.00 0.00 0.00 0.00 0.00 0.00 0.00 0.00 0.00 0.00 0.00 0.00 0.00 0.00 0.00 0.00 0.00 0.01 0.01 0.01 0.00 0.00 0.01 0.00 0.00 0.00 0.00 0.00 0.00 0.00 0.00 0.00 0.00 0.00 0.00 0.00 0.00 0.00 0.00 0.00 0.00 0.00 0.00 0.00 0.00 0.00 0.00 0.00 0.00
0.00 0.00 0.00 0.00 0.00 0.00 0.00 0.00 0.00 0.00 0.00 0.00 0.00 0.00 0.00 0.00 0.00 0.00 0.00 0.00 0.00 0.00 0.00 0.00 0.00 0.00 0.02 0.02 0.00 0.01 0.00 0.00 0.00 0.00 0.00 0.00 0.00 0.00 0.00 0.00 0.00 0.00 0.00 0.00 0.00 0.00 0.00 0.00 0.00 0.00 0.00 0.00 0.00 0.00
0.00 0.00 0.00 0.00 0.00 0.00 0.00 0.00 0.00 0.00 0.00 0.00 0.00 0.00 0.00 0.00 0.00 0.00 0.00 0.00 0.00 0.00 0.00 0.00 0.00 0.01 0.00 0.00 0.00 0.02 0.00 0.00 0.00 0.00 0.00 0.00 0.00 0.00 0.00 0.00 0.00 0.00 0.00 0.00 0.00 0.00 0.00 0.00 0.00 0.00 0.00 0.00 0.00 0.00
0.00 0.00 0.00 0.00 0.00 0.00 0.00 0.00 0.00 0.00 0.00 0.00 0.00 0.00 0.00 0.00 0.00 0.00 0.00 0.00 0.00 0.00 0.00 0.00 0.00 0.00 0.00 0.00 0.00 0.00 0.00 0.00 0.00 0.00 0.00 0.00 0.00 0.00 0.00 0.00 0.00 0.00 0.00 0.00 0.00 0.00 0.00 0.00 0.00 0.00 0.00 0.00 0.00 0.00
0.00 0.00 0.00 0.00 0.00 0.00 0.00 0.00 0.00 0.00 0.00 0.00 0.00 0.01 0.00 0.00 0.00 0.00 0.00 0.00 0.00 0.00 0.00 0.00 0.00 0.00 0.00 0.01 0.01 0.01 0.00 0.00 0.00 0.00 0.00 0.00 0.00 0.00 0.00 0.00 0.00 0.00 0.00 0.00 0.00 0.00 0.00 0.00 0.00 0.00 0.00 0.00 0.00 0.00
0.00 0.00 0.00 0.00 0.00 0.00 0.00 0.00 0.00 0.00 0.00 0.00 0.00 0.00 0.00 0.00 0.00 0.01 0.00 0.00 0.00 0.00 0.00 0.00 0.00 0.00 0.00 0.00 0.00 0.00 0.00 0.00 0.00 0.00 0.00 0.00 0.00 0.00 0.00 0.00 0.00 0.00 0.00 0.00 0.00 0.00 0.00 0.00 0.00 0.00 0.00 0.00 0.00 0.00
0.00 0.00 0.00 0.00 0.00 0.00 0.00 0.00 0.00 0.00 0.00 0.00 0.00 0.00 0.00 0.00 0.02 0.03 0.01 0.00 0.00 0.00 0.00 0.00 0.00 0.00 0.00 0.00 0.00 0.00 0.00 0.00 0.00 0.00 0.00 0.00 0.00 0.00 0.00 0.00 0.00 0.00 0.00 0.00 0.00 0.00 0.00 0.00 0.00 0.00 0.00 0.00 0.00 0.00
0.00 0.00 0.00 0.00 0.00 0.00 0.00 0.00 0.00 0.00 0.00 0.00 0.00 0.00 0.00 0.00 0.00 0.00 0.00 0.00 0.00 0.00 0.00 0.00 0.01 0.01 0.00 0.00 0.00 0.00 0.00 0.00 0.00 0.00 0.00 0.00 0.00 0.00 0.00 0.00 0.00 0.00 0.00 0.00 0.00 0.00 0.00 0.00 0.00 0.00 0.00 0.00 0.00 0.00
0.00 0.00 0.00 0.00 0.00 0.00 0.00 0.00 0.00 0.00 0.00 0.00 0.00 0.00 0.00 0.00 0.00 0.00 0.00 0.00 0.00 0.00 0.00 0.00 0.00 0.00 0.00 0.00 0.00 0.00 0.00 0.00 0.00 0.00 0.00 0.00 0.00 0.00 0.00 0.00 0.00 0.00 0.00 0.00 0.00 0.00 0.00 0.00 0.00 0.00 0.00 0.00 0.00 0.00
0.00 0.00 0.00 0.00 0.00 0.00 0.00 0.00 0.00 0.00 0.00 0.00 0.00 0.00 0.00 0.00 0.00 0.00 0.00 0.00 0.00 0.00 0.00 0.00 0.00 0.00 0.00 0.00 0.00 0.00 0.00 0.00 0.00 0.00 0.00 0.00 0.00 0.00 0.00 0.00 0.00 0.00 0.00 0.00 0.00 0.00 0.00 0.00 0.00 0.00 0.00 0.00 0.00 0.00
0.00 0.00 0.00 0.00 0.00 0.00 0.00 0.00 0.00 0.00 0.00 0.00 0.00 0.00 0.00 0.00 0.00 0.00 0.00 0.00 0.00 0.00 0.00 0.00 0.00 0.00 0.00 0.00 0.00 0.00 0.00 0.00 0.00 0.00 0.00 0.00 0.00 0.00 0.00 0.00 0.00 0.00 0.00 0.00 0.00 0.00 0.00 0.00 0.00 0.00 0.00 0.00 0.00 0.00
0.00 0.00 0.00 0.00 0.00 0.00 0.00 0.00 0.00 0.00 0.00 0.00 0.00 0.00 0.00 0.00 0.00 0.00 0.00 0.00 0.00 0.00 0.00 0.00 0.00 0.00 0.00 0.00 0.00 0.00 0.00 0.00 0.00 0.00 0.00 0.00 0.00 0.00 0.00 0.00 0.00 0.00 0.00 0.00 0.00 0.00 0.00 0.00 0.00 0.00 0.00 0.00 0.00 0.00
0.00 0.00 0.00 0.00 0.00 0.00 0.00 0.00 0.00 0.00 0.00 0.00 0.00 0.00 0.00 0.00 0.00 0.00 0.00 0.00 0.00 0.00 0.00 0.00 0.00 0.00 0.00 0.00 0.00 0.00 0.00 0.00 0.00 0.00 0.00 0.00 0.00 0.00 0.00 0.00 0.00 0.00 0.00 0.00 0.00 0.00 0.00 0.00 0.00 0.00 0.00 0.00 0.00 0.00
0.00 0.00 0.00 0.00 0.00 0.00 0.00 0.00 0.00 0.00 0.00 0.00 0.00 0.00 0.00 0.00 0.00 0.00 0.00 0.00 0.00 0.00 0.00 0.00 0.00 0.00 0.00 0.00 0.00 0.00 0.00 0.00 0.00 0.00 0.00 0.00 0.00 0.00 0.00 0.00 0.00 0.00 0.00 0.00 0.00 0.00 0.00 0.00 0.00 0.00 0.00 0.00 0.00 0.00
0.00 0.00 0.00 0.00 0.00 0.00 0.00 0.00 0.00 0.00 0.00 0.00 0.00 0.00 0.00 0.00 0.00 0.00 0.00 0.00 0.00 0.00 0.00 0.00 0.00 0.00 0.00 0.00 0.00 0.00 0.00 0.00 0.00 0.00 0.00 0.00 0.00 0.00 0.00 0.00 0.00 0.00 0.00 0.00 0.00 0.00 0.00 0.00 0.00 0.00 0.00 0.00 0.00 0.00
0.00 0.00 0.00 0.00 0.00 0.00 0.00 0.00 0.00 0.00 0.00 0.00 0.00 0.00 0.00 0.00 0.00 0.00 0.00 0.00 0.00 0.00 0.00 0.00 0.00 0.00 0.00 0.00 0.00 0.00 0.00 0.00 0.00 0.00 0.00 0.00 0.00 0.00 0.00 0.00 0.00 0.00 0.00 0.00 0.00 0.00 0.00 0.00 0.00 0.00 0.00 0.00 0.00 0.00
MSLP
996.52 995.46 995.01 994.85 994.97 994.83 994.61 994.54 994.41 994.13 993.57 992.84 991.94 990.68 989.16 987.28 986.13 985.45 984.95 985.61 987.32 988.23 988.62 989.05 988.90 988.99 990.13 991.11 992.30 994.39 995.84 997.05 997.44 997.53 998.62 999.65 1000.16 1000.46 1000.79 1000.85 1000.99 1001.67 1002.48 1003.11 1003.48 1002.99 1001.91 1000.26 1000.48 1000.18 1000.77 1001.30 1001.84 1002.64
995.84 993.92 993.84 994.35 994.68 994.70 994.69 994.66 994.51 994.02 993.32 992.49 991.55 990.25 988.67 987.15 985.47 984.51 983.50 984.20 986.69 988.02 988.84 988.90 988.57 988.23 988.78 989.27 990.40 993.50 993.80 995.20 995.92 996.71 997.97 998.70 999.74 1000.10 999.91 1000.66 1000.37 1001.10 1000.27 1000.68 1001.43 1001.23 1000.29 999.84 1000.13 1000.41 1000.56 1001.15 1001.98 1002.68
996.46 995.37 994.91 994.89 994.93 995.03 995.08 994.95 994.53 993.91 993.22 992.42 991.56 990.45 989.14 987.64 986.09 985.16 985.58 986.02 986.94 988.12 989.41 989.45 989.73 989.58 989.62 989.91 989.97 992.15 993.74 993.72 994.66 994.66 996.31 997.53 998.52 998.84 999.04 999.41 999.66 1000.03 999.82 1000.27 1000.81 1001.37 1000.60 1000.28 1000.52 1000.65 1000.98 1001.39 1002.04 1002.65
997.72 996.67 996.17 995.88 995.71 995.71 995.56 995.17 994.66 994.07 993.35 992.56 991.61 990.71 989.69 988.63 987.59 986.67 986.73 986.94 987.40 988.49 990.22 990.85 990.15 990.57 990.40 990.70 991.06 991.38 991.95 992.72 993.44 994.30 995.40 996.75 997.26 997.67 998.02 998.23 998.47 999.19 999.80 999.97 1000.03 1000.31 1000.34 1000.47 1000.48 1000.79 1001.36 1001.84 1002.47 1002.97
998.78 997.93 997.35 997.00 996.60 996.34 996.04 995.53 994.95 994.32 993.50 992.66 991.80 990.84 990.02 989.21 988.69 988.31 987.78 988.03 987.98 988.17 990.50 991.50 991.47 991.83 991.39 991.05 991.47 991.89 992.48 993.11 994.10 994.78 995.40 996.23 996.37 996.97 997.58 998.34 998.43 998.33 998.66 999.02 999.08 999.21 999.66 1000.75 1000.83 1001.10 1001.98 1002.81 1003.31 1003.62
999.66 998.90 998.24 997.83 997.47 996.98 996.49 995.98 995.30 994.50 993.72 992.83 992.04 991.28 990.60 989.68 989.06 988.92 988.69 988.62 988.70 989.07 990.47 992.27 993.24 992.93 992.52 992.38 992.46 993.11 993.78 994.17 994.53 995.23 995.78 996.03 995.71 996.04 997.10 997.35 996.51 997.05 997.32 997.51 998.22 998.79 999.77 1000.90 1001.26 1001.43 1002.13 1003.03 1003.63 1004.11
1000.37 999.62 998.90 998.38 998.02 997.55 996.93 996.36 995.78 995.02 994.16 993.23 992.39 991.68 991.03 990.39 989.53 989.76 990.79 990.73 989.64 989.58 991.01 992.45 993.64 994.15 993.89 993.75 993.90 994.22 994.54 994.90 994.98 995.30 995.47 995.76 995.81 995.75 996.79 997.18 996.70 996.46 996.92 997.97 998.38 999.21 1000.71 1001.22 1002.24 1002.34 1002.40 1003.03 1003.76 1004.56
1000.99 1000.32 999.67 999.02 998.41 997.90 997.40 996.80 996.11 995.21 994.32 993.35 992.51 992.09 991.39 990.64 990.60 990.71 990.20 989.76 989.67 990.16 991.16 993.00 994.29 994.49 994.78 994.81 994.98 995.14 995.26 995.37 995.58 995.82 996.03 996.26 996.39 996.98 997.76 997.40 997.01 997.19 997.66 998.29 999.30 999.43 1000.34 1001.42 1002.55 1002.91 1003.17 1003.53 1004.51 1005.31
1001.50 1000.90 1000.24 999.65 999.08 998.40 997.64 996.84 995.95 994.98 993.97 993.22 992.43 992.07 991.82 992.17 992.15 991.71 990.94 990.18 989.96 990.71 992.30 993.53 994.51 995.44 995.56 995.69 996.03 996.02 996.16 996.89 996.88 997.01 997.14 997.28 997.91 997.84 997.89 997.93 997.93 998.12 998.54 999.70 1000.16 1000.55 1001.32 1002.23 1003.17 1003.53 1004.01 1004.55 1005.25 1006.26
1002.03 1001.24 1000.72 1000.10 999.43 998.78 998.15 997.33 996.33 995.04 994.01 993.38 993.12 993.29 993.82 993.09 992.26 991.50 991.11 990.99 991.06 992.24 993.75 995.11 995.36 995.92 996.12 996.39 997.02 997.45 997.62 997.89 998.06 998.31 997.95 998.39 998.68 998.17 998.18 998.35 998.66 999.05 999.57 1000.06 1000.96 1001.98 1002.56 1003.14 1003.49 1004.24 1004.65 1005.24 1005.99 1006.72
1002.42 1001.72 1000.95 1000.33 999.68 999.03 998.33 997.64 996.96 995.72 994.78 995.01 995.61 995.64 994.18 992.95 992.66 993.12 993.72 993.66 993.72 994.65 995.66 996.24 996.35 996.56 996.69 996.97 997.47 997.85 998.19 998.34 998.64 998.92 998.92 999.52 999.57 999.29 999.30 999.50 999.85 1000.11 1000.57 1001.12 1001.37 1002.02 1002.48 1003.09 1004.11 1004.61 1005.41 1006.08 1006.38 1007.16
1002.51 1001.93 1001.27 1000.56 1000.00 999.43 998.77 997.95 997.30 996.90 996.84 996.41 996.18 995.83 995.01 994.74 994.85 995.58 996.21 995.79 995.98 996.57 996.91 996.90 997.09 997.27 997.44 997.31 997.96 998.55 998.82 999.10 999.41 999.55 999.93 1000.28 1000.07 999.69 999.95 1000.41 1000.96 1001.20 1001.52 1002.10 1002.53 1003.11 1003.71 1004.20 1004.67 1005.30 1005.90 1006.43 1006.86 1007.67
1002.54 1001.86 1001.29 1000.72 1000.09 999.53 998.96 998.28 997.59 997.06 995.87 995.79 996.22 996.41 996.70 997.39 997.90 998.44 998.54 998.15 997.83 997.59 997.59 997.60 997.92 997.97 998.02 998.16 998.86 999.14 999.39 999.78 999.71 1000.22 1000.60 1000.43 1000.16 1000.51 1000.83 1001.25 1001.89 1002.21 1002.47 1002.97 1003.63 1004.16 1004.58 1004.87 1005.30 1005.82 1006.40 1006.92 1007.46 1007.96
1002.45 1001.82 1001.17 1000.62 1000.10 999.55 998.96 998.43 997.82 997.33 997.07 997.31 997.53 997.97 998.67 999.99 1000.11 1000.15 999.98 999.45 998.65 998.25 998.10 998.17 998.62 998.60 998.76 998.93 999.19 999.64 999.93 999.87 1000.44 1000.91 1000.62 1000.22 1000.32 1000.82 1001.34 1001.82 1002.17 1002.79 1003.19 1003.69 1004.22 1004.69 1005.11 1005.57 1006.09 1006.48 1006.94 1007.47 1007.85 1008.15
1002.24 1001.57 1000.96 1000.36 1000.08 999.53 998.92 998.35 997.95 997.77 997.95 998.35 998.74 999.75 1000.12 1000.47 1000.53 1000.34 1000.00 999.47 998.93 998.66 998.61 998.78 998.98 999.07 999.32 999.66 999.64 1000.01 1000.25 1000.30 1000.39 1000.35 1000.05 999.95 1000.23 1000.75 1001.34 1001.82 1002.39 1003.07 1003.64 1004.08 1004.49 1005.02 1005.57 1006.17 1006.64 1007.14 1007.58 1007.70 1007.83 1008.25
1002.05 1001.21 1000.71 1000.38 999.95 999.40 998.78 998.26 997.93 997.93 998.23 998.85 999.68 1000.51 1000.65 1000.92 1001.08 1000.60 1000.22 999.77 999.14 998.85 998.80 999.04 999.21 999.64 999.69 999.62 999.86 1000.06 1000.14 1000.13 1000.07 999.73 999.64 999.97 1000.52 1001.06 1001.48 1001.93 1002.58 1003.05 1003.54 1004.18 1004.76 1005.36 1005.95 1006.52 1006.91 1007.35 1007.70 1007.96 1007.96 1008.28
1001.76 1001.23 1000.72 1000.26 999.77 999.10 998.44 998.55 998.53 998.59 998.85 999.50 1000.44 1000.55 1001.24 1001.09 1000.91 1000.71 1000.42 1000.04 999.34 999.22 999.34 999.27 999.54 999.48 999.57 999.71 999.85 999.79 999.77 999.83 999.37 999.46 999.78 1000.03 1000.40 1000.86 1001.24 1001.87 1002.46 1003.12 1003.78 1004.28 1004.81 1005.47 1005.87 1006.38 1006.95 1007.61 1007.77 1007.77 1007.87 1008.30
1001.37 1001.17 1001.02 1000.59 1000.15 999.59 998.74 998.41 998.70 998.93 999.26 999.84 1000.47 1000.60 1000.72 1000.65 1000.83 1000.77 1000.50 1000.08 999.78 999.53 999.31 999.29 999.15 999.26 999.33 999.60 999.45 999.42 999.39 999.48 999.39 999.74 1000.05 1000.20 1000.53 1000.91 1001.40 1002.08 1002.72 1003.36 1003.83 1004.41 1004.89 1005.54 1006.12 1006.51 1006.86 1007.17 1007.26 1007.46 1007.86 1008.34
1001.32 1001.03 1000.74 1000.61 1000.52 1000.37 999.50 998.63 998.63 999.12 999.35 999.52 999.73 1000.06 1000.43 1000.53 1000.08 1000.10 1000.13 999.98 999.89 999.59 999.54 999.38 999.41 999.29 999.05 998.86 998.96 999.25 999.44 999.41 999.77 1000.04 1000.14 1000.32 1000.60 1001.13 1001.62 1002.36 1002.92 1003.32 1003.75 1004.33 1004.97 1005.55 1005.93 1006.17 1006.41 1006.72 1007.01 1007.35 1007.73 1008.17
1000.60 1000.08 999.80 1000.09 1000.31 1000.13 999.37 998.55 998.28 998.78 999.11 998.96 999.28 999.89 1000.08 1000.16 999.98 1000.12 1000.22 1000.12 999.96 999.73 999.92 999.91 999.35 998.91 998.61 998.51 998.52 998.69 999.06 999.24 999.66 1000.23 1000.53 1000.80 1001.05 1001.31 1001.90 1002.39 1002.92 1003.35 1003.92 1004.41 1004.85 1005.30 1005.77 1006.15 1006.31 1006.47 1006.74 1007.15 1007.52 1007.92
1000.13 999.49 999.44 999.74 999.96 999.88 999.33 998.53 998.33 998.28 998.29 998.68 998.64 999.22 999.75 999.87 1000.11 1000.33 1000.43 1000.03 1000.28 1000.32 1000.08 999.55 999.13 998.60 998.21 998.01 998.02 998.30 998.67 999.04 999.50 999.89 1000.36 1000.90 1001.19 1001.47 1002.05 1002.56 1002.90 1003.33 1003.76 1004.23 1004.58 1004.99 1005.34 1005.62 1005.76 1006.04 1006.43 1006.91 1007.14 1007.54
1000.13 999.43 999.44 999.45 999.60 999.05 998.83 998.01 997.96 997.71 998.12 998.16 998.56 998.78 999.35 999.69 1000.01 999.88 999.85 1000.19 1000.00 999.58 999.30 998.94 998.86 998.73 998.70 998.57 998.56 998.67 998.78 999.08 999.49 1000.01 1000.22 1000.61 1001.13 1001.32 1001.67 1002.05 1002.55 1002.87 1003.23 1003.57 1003.86 1004.25 1004.58 1004.84 1005.27 1005.72 1006.21 1006.77 1007.24 1007.63
999.92 999.40 999.41 999.16 999.17 998.88 998.35 997.69 997.79 997.61 997.88 998.01 998.20 998.62 998.86 999.24 999.09 999.07 999.64 999.60 999.30 998.76 998.45 998.42 998.49 998.33 998.53 998.54 998.62 998.92 999.15 999.42 999.88 1000.11 1000.33 1000.54 1000.69 1000.97 1001.32 1001.59 1001.83 1002.23 1002.58 1002.85 1003.15 1003.54 1003.97 1004.31 1004.95 1005.58 1006.15 1006.78 1007.30 1007.70
999.26 999.33 999.19 999.03 998.81 998.63 998.27 998.03 997.67 997.56 997.49 997.71 997.97 998.29 998.42 998.45 998.78 999.24 999.60 999.67 999.77 999.47 999.26 999.17 999.01 999.07 999.14 999.23 999.40 999.39 999.41 999.52 999.90 1000.05 1000.07 1000.34 1000.62 1000.80 1000.92 1001.10 1001.36 1001.53 1001.68 1002.05 1002.71 1003.19 1003.54 1004.03 1004.60 1005.23 1005.78 1006.38 1007.00 1007.42
999.30 999.33 999.25 998.78 998.40 998.49 998.42 998.08 997.83 997.74 997.74 997.84 998.09 998.22 998.35 998.45 999.32 999.75 999.80 1000.29 1000.60 1000.59 1000.41 1000.20 1000.06 1000.07 1000.10 1000.12 1000.04 999.91 999.71 999.85 1000.02 1000.21 1000.22 1000.32 1000.46 1000.68 1000.78 1000.87 1001.12 1001.27 1001.48 1001.99 1002.46 1002.82 1003.26 1003.62 1004.11 1004.66 1005.30 1005.89 1006.45 1006.98
998.93 998.56 998.65 998.07 997.99 997.93 997.93 997.86 997.85 997.92 998.14 998.34 998.47 998.54 998.73 999.34 1000.03 1000.23 1000.34 1000.68 1001.26 1001.65 1001.55 1001.24 1001.06 1001.06 1001.17 1001.19 1001.17 1001.05 1000.97 1000.64 1000.30 1000.27 1000.14 1000.15 1000.20 1000.36 1000.61 1000.96 1001.20 1001.50 1001.55 1001.75 1002.06 1002.53 1002.87 1003.22 1003.68 1004.18 1004.79 1005.29 1005.75 1006.34
999.05 998.51 997.97 997.51 997.48 997.47 997.59 997.58 997.63 997.98 998.37 998.64 998.86 999.24 999.84 1000.21 1000.59 1000.74 1000.82 1000.99 1001.55 1001.89 1001.81 1001.80 1001.69 1001.72 1001.88 1001.93 1001.92 1001.83 1001.66 1001.47 1001.29 1000.93 1000.71 1000.41 1000.23 1000.28 1000.44 1000.82 1001.08 1001.16 1001.45 1001.83 1002.10 1002.31 1002.50 1002.76 1003.11 1003.65 1004.22 1004.70 1005.08 1005.70
998.83 998.39 998.44 998.02 997.96 997.89 998.09 998.10 998.22 998.34 998.29 998.28 998.78 999.58 999.95 1000.04 1000.28 1000.66 1000.84 1000.92 1001.16 1001.65 1002.00 1002.11 1002.07 1002.33 1002.47 1002.49 1002.43 1002.34 1002.15 1001.97 1001.74 1001.46 1001.13 1000.93 1000.70 1000.66 1000.63 1000.65 1000.77 1000.82 1001.09 1001.46 1001.77 1001.91 1002.07 1002.29 1002.60 1003.12 1003.70 1004.16 1004.62 1005.06
999.15 998.70 998.44 998.59 998.68 998.64 998.64 998.56 998.51 998.28 998.09 998.30 998.92 999.44 999.63 999.96 1000.28 1000.53 1000.86 1000.89 1001.23 1001.89 1002.65 1003.10 1002.84 1002.82 1002.87 1002.78 1002.77 1002.65 1002.57 1002.69 1002.44 1002.13 1001.85 1001.69 1001.54 1001.41 1001.15 1000.98 1000.91 1000.96 1001.09 1001.43 1001.65 1001.91 1002.06 1002.12 1002.30 1002.67 1003.11 1003.60 1003.99 1004.43
999.69 999.02 999.18 999.24 999.30 999.38 999.18 998.93 999.05 999.00 998.79 998.90 999.07 999.51 999.95 1000.36 1000.35 1000.35 1000.84 1001.38 1001.96 1002.43 1002.48 1002.70 1002.95 1003.31 1003.94 1004.01 1004.16 1003.67 1002.91 1002.64 1002.48 1002.43 1002.26 1002.19 1002.02 1001.88 1001.57 1001.17 1001.12 1001.17 1001.25 1001.41 1001.66 1002.00 1002.26 1002.59 1002.66 1002.92 1003.23 1003.53 1003.77 1003.95
999.85 999.60 999.89 999.97 999.99 999.99 999.82 999.56 999.46 999.50 999.68 999.98 1000.03 1000.41 1000.83 1001.10 1000.93 1000.77 1001.21 1001.36 1001.78 1002.22 1002.72 1003.35 1003.48 1003.58 1003.86 1004.12 1004.41 1004.03 1003.90 1003.20 1002.83 1002.68 1002.52 1002.47 1002.34 1002.04 1001.59 1000.90 1000.60 1000.79 1001.13 1001.35 1001.59 1001.92 1002.33 1002.72 1003.01 1003.22 1003.41 1003.63 1003.85 1003.99
1000.38 1000.34 1000.57 1000.58 1000.61 1000.41 1000.14 1000.28 1000.46 1000.66 1000.62 1000.84 1001.11 1001.13 1001.52 1001.66 1001.77 1001.62 1001.58 1001.83 1002.15 1002.91 1002.90 1003.16 1003.76 1003.70 1003.52 1003.27 1003.22 1003.29 1003.46 1003.50 1003.34 1003.29 1003.15 1003.02 1002.84 1002.56 1002.10 1001.55 1001.00 1000.86 1001.14 1001.48 1001.73 1001.97 1002.21 1002.51 1002.85 1003.03 1003.22 1003.44 1003.59 1003.71
1000.99 1000.84 1000.76 1000.85 1001.03 1001.00 1001.07 1001.14 1001.18 1001.31 1001.41 1001.57 1001.77 1001.94 1002.04 1002.26 1002.51 1002.48 1002.20 1002.03 1002.38 1002.64 1002.74 1003.05 1002.97 1003.16 1003.24 1003.32 1003.38 1003.60 1003.92 1003.75 1003.41 1003.30 1003.33 1003.33 1003.25 1003.09 1002.91 1002.70 1002.41 1002.12 1002.07 1002.15 1002.26 1002.39 1002.56 1002.72 1002.87 1003.01 1003.18 1003.35 1003.54 1003.70
Thickness
5358 5361 5360 5358 5356 5356 5358 5360 5362 5366 5371 5377 5382 5388 5394 5404 5413 5419 5418 5409 5406 5415 5429 5438 5447 5456 5450 5455 5458 5440 5453 5441 5453 5474 5476 5467 5468 5476 5488 5503 5505 5503 5491 5486 5486 5481 5500 5536 5535 5533 5534 5525 5522 5518
5358 5366 5364 5359 5356 5355 5355 5356 5359 5364 5371 5377 5382 5388 5395 5402 5416 5420 5425 5419 5408 5418 5425 5432 5445 5459 5466 5470 5471 5447 5466 5456 5459 5465 5462 5462 5461 5464 5481 5484 5492 5485 5499 5495 5495 5492 5510 5526 5517 5513 5516 5513 5511 5506
5354 5356 5356 5355 5354 5352 5350 5351 5356 5363 5370 5376 5381 5387 5391 5399 5413 5420 5418 5416 5418 5420 5417 5426 5430 5441 5450 5457 5470 5452 5442 5461 5460 5477 5467 5465 5466 5474 5478 5479 5480 5478 5496 5477 5484 5482 5495 5502 5500 5499 5501 5500 5498 5495
5349 5352 5351 5350 5349 5347 5346 5348 5353 5360 5368 5374 5380 5385 5390 5395 5404 5415 5416 5419 5422 5421 5412 5411 5430 5429 5438 5442 5447 5456 5462 5465 5469 5469 5463 5457 5465 5470 5468 5475 5480 5472 5474 5473 5475 5484 5486 5488 5488 5488 5486 5486 5483 5481
5348 5349 5348 5345 5345 5344 5343 5346 5351 5357 5366 5373 5380 5386 5390 5395 5400 5406 5415 5416 5423 5429 5412 5407 5415 5418 5430 5440 5441 5445 5449 5453 5450 5449 5447 5452 5461 5462 5454 5456 5451 5469 5467 5468 5466 5482 5475 5471 5471 5475 5469 5464 5461 5460
5347 5347 5348 5345 5342 5343 5343 5344 5348 5355 5363 5372 5380 5385 5389 5395 5400 5403 5403 5416 5418 5417 5412 5406 5392 5406 5419 5426 5430 5430 5432 5433 5439 5439 5442 5447 5461 5456 5451 5457 5478 5479 5479 5476 5471 5471 5467 5459 5462 5460 5454 5449 5448 5446
5346 5347 5348 5347 5344 5342 5344 5345 5346 5351 5359 5368 5377 5384 5389 5394 5402 5397 5391 5397 5409 5415 5403 5400 5397 5392 5403 5408 5410 5415 5419 5421 5425 5427 5430 5440 5448 5446 5436 5446 5463 5471 5470 5464 5463 5461 5446 5449 5439 5441 5443 5441 5437 5425
5346 5346 5347 5348 5349 5347 5345 5345 5347 5351 5357 5366 5375 5380 5388 5395 5397 5395 5403 5409 5410 5408 5403 5390 5387 5393 5393 5394 5400 5404 5407 5411 5413 5414 5424 5428 5433 5422 5423 5444 5454 5456 5456 5451 5447 5449 5442 5435 5431 5427 5427 5422 5412 5404
5345 5346 5347 5348 5348 5349 5349 5350 5352 5356 5362 5367 5375 5379 5382 5380 5381 5390 5401 5410 5413 5412 5394 5394 5389 5387 5387 5387 5391 5397 5401 5398 5404 5405 5413 5418 5407 5406 5426 5432 5438 5440 5439 5430 5431 5430 5427 5423 5416 5411 5405 5396 5390 5380
5343 5345 5345 5347 5348 5350 5351 5352 5355 5361 5366 5368 5369 5361 5350 5369 5383 5393 5395 5392 5395 5395 5389 5380 5384 5386 5387 5382 5384 5384 5382 5388 5393 5397 5402 5398 5408 5423 5423 5423 5421 5422 5422 5420 5412 5405 5404 5400 5398 5391 5385 5380 5377 5372
5341 5341 5343 5345 5347 5349 5351 5353 5355 5361 5363 5357 5345 5336 5359 5372 5374 5366 5362 5375 5375 5378 5373 5370 5374 5376 5380 5381 5378 5375 5375 5382 5385 5386 5389 5388 5393 5392 5402 5400 5399 5399 5397 5395 5396 5393 5392 5389 5380 5378 5368 5364 5363 5356
5342 5340 5341 5343 5344 5346 5348 5352 5354 5354 5349 5352 5352 5354 5358 5354 5350 5350 5337 5358 5363 5363 5360 5365 5365 5366 5368 5371 5369 5366 5372 5374 5378 5364 5366 5373 5374 5389 5388 5384 5379 5380 5380 5377 5376 5371 5369 5368 5366 5361 5356 5354 5351 5342
5343 5341 5341 5341 5342 5344 5346 5349 5352 5356 5363 5363 5358 5360 5347 5338 5329 5344 5327 5341 5334 5347 5347 5352 5350 5353 5357 5359 5354 5357 5359 5355 5363 5339 5364 5365 5368 5368 5367 5365 5361 5361 5361 5359 5356 5354 5354 5356 5355 5353 5349 5346 5339 5334
5343 5342 5342 5342 5342 5343 5346 5348 5351 5355 5354 5349 5350 5335 5331 5314 5326 5335 5332 5326 5337 5339 5343 5345 5336 5343 5340 5349 5343 5346 5349 5353 5335 5326 5360 5350 5361 5356 5352 5351 5350 5347 5346 5347 5347 5346 5345 5344 5342 5342 5340 5337 5335 5331
5342 5344 5343 5343 5341 5343 5345 5348 5350 5350 5348 5343 5344 5319 5324 5324 5316 5319 5319 5329 5333 5336 5340 5340 5340 5339 5336 5333 5343 5344 5338 5333 5350 5340 5344 5350 5353 5351 5348 5347 5347 5343 5337 5339 5341 5338 5337 5334 5333 5331 5330 5332 5332 5330
5341 5345 5344 5342 5341 5342 5345 5348 5349 5349 5346 5343 5334 5328 5321 5314 5304 5311 5313 5324 5335 5326 5336 5332 5340 5325 5333 5343 5350 5334 5352 5350 5345 5340 5356 5349 5347 5344 5344 5344 5339 5339 5340 5338 5334 5332 5329 5327 5327 5327 5326 5319 5320 5323
5339 5341 5342 5341 5341 5343 5346 5343 5342 5344 5341 5344 5329 5306 5307 5307 5319 5323 5322 5330 5334 5331 5329 5334 5336 5351 5339 5337 5351 5349 5338 5343 5338 5348 5352 5346 5346 5342 5345 5341 5338 5336 5335 5333 5330 5328 5327 5326 5323 5323 5323 5324 5327 5325
5337 5335 5335 5336 5336 5338 5341 5341 5334 5331 5341 5322 5319 5315 5323 5317 5326 5331 5327 5328 5332 5335 5342 5348 5345 5353 5331 5353 5345 5338 5337 5336 5339 5344 5341 5343 5342 5339 5342 5339 5334 5330 5331 5328 5328 5324 5320 5322 5323 5322 5326 5327 5325 5323
5331 5330 5331 5330 5329 5327 5333 5339 5334 5327 5319 5317 5316 5315 5314 5312 5324 5326 5318 5327 5329 5335 5332 5331 5345 5341 5343 5345 5337 5339 5333 5339 5339 5340 5338 5343 5343 5338 5335 5331 5328 5328 5329 5326 5324 5320 5319 5321 5322 5322 5323 5323 5323 5321
5330 5332 5332 5328 5326 5325 5335 5338 5335 5327 5320 5321 5314 5314 5315 5314 5316 5312 5314 5319 5328 5335 5324 5328 5332 5338 5337 5339 5342 5342 5342 5343 5342 5338 5339 5335 5333 5336 5330 5327 5325 5323 5321 5319 5319 5316 5316 5316 5319 5320 5320 5320 5320 5319
5326 5330 5328 5324 5321 5321 5326 5333 5331 5327 5321 5323 5316 5318 5312 5308 5308 5304 5306 5311 5315 5315 5313 5319 5320 5323 5335 5333 5336 5340 5340 5341 5338 5340 5339 5333 5329 5331 5327 5322 5321 5321 5320 5318 5317 5317 5316 5316 5317 5318 5317 5316 5317 5316
5316 5321 5319 5318 5317 5325 5323 5328 5331 5331 5328 5320 5316 5313 5305 5290 5291 5303 5303 5301 5308 5311 5310 5312 5317 5320 5322 5329 5327 5330 5332 5331 5329 5325 5327 5325 5320 5320 5324 5323 5321 5320 5319 5318 5318 5317 5315 5315 5314 5313 5313 5310 5309 5308
5307 5311 5311 5315 5315 5311 5317 5324 5329 5330 5329 5325 5320 5320 5308 5302 5304 5305 5292 5301 5302 5305 5309 5311 5319 5323 5319 5323 5324 5323 5323 5322 5318 5318 5319 5320 5320 5318 5314 5314 5320 5319 5318 5317 5317 5316 5315 5312 5308 5306 5305 5302 5301 5300
5300 5301 5296 5301 5309 5299 5312 5306 5320 5325 5325 5326 5325 5321 5319 5308 5306 5308 5307 5298 5298 5295 5298 5300 5306 5307 5306 5307 5306 5309 5311 5311 5310 5308 5310 5312 5312 5313 5314 5314 5315 5316 5317 5314 5311 5310 5309 5307 5304 5301 5299 5298 5296 5295
5278 5279 5281 5279 5299 5297 5297 5302 5309 5320 5300 5312 5314 5302 5306 5308 5298 5297 5302 5291 5286 5284 5285 5288 5290 5290 5288 5286 5288 5293 5298 5298 5297 5298 5299 5300 5301 5302 5303 5305 5304 5303 5303 5304 5303 5303 5303 5302 5302 5299 5296 5294 5292 5290
5268 5265 5275 5283 5287 5295 5297 5288 5287 5290 5294 5293 5298 5304 5299 5279 5276 5278 5291 5286 5274 5262 5260 5267 5270 5272 5271 5270 5270 5270 5272 5276 5282 5286 5288 5290 5293 5294 5294 5293 5292 5292 5291 5293 5295 5296 5296 5296 5296 5293 5292 5290 5289 5287
5247 5247 5277 5286 5291 5298 5289 5292 5299 5285 5277 5273 5280 5276 5270 5267 5260 5270 5264 5266 5264 5261 5264 5262 5263 5263 5260 5259 5257 5256 5255 5256 5257 5262 5265 5271 5276 5279 5283 5282 5283 5283 5282 5283 5283 5283 5289 5290 5289 5288 5287 5286 5285 5283
5235 5251 5251 5262 5266 5272 5265 5271 5273 5273 5271 5288 5282 5264 5263 5269 5266 5264 5264 5263 5261 5260 5257 5256 5255 5252 5248 5247 5244 5241 5240 5240 5240 5241 5245 5250 5255 5258 5262 5266 5270 5272 5273 5273 5274 5276 5280 5282 5283 5282 5280 5280 5279 5279
5215 5231 5248 5242 5248 5253 5252 5258 5264 5273 5276 5274 5266 5257 5262 5267 5259 5254 5255 5258 5255 5250 5238 5236 5235 5233 5233 5233 5229 5227 5225 5222 5222 5222 5225 5227 5231 5237 5241 5247 5252 5257 5260 5261 5262 5263 5265 5269 5272 5273 5274 5274 5274 5273
5202 5221 5225 5224 5231 5239 5237 5240 5243 5243 5253 5254 5256 5257 5254 5247 5247 5248 5248 5244 5242 5235 5236 5231 5225 5220 5217 5214 5210 5210 5210 5210 5210 5209 5203 5203 5210 5214 5223 5232 5237 5242 5246 5249 5250 5249 5251 5250 5254 5256 5258 5260 5262 5266
5202 5206 5206 5209 5208 5210 5213 5220 5223 5227 5228 5229 5228 5233 5234 5230 5235 5235 5234 5234 5228 5220 5218 5216 5215 5208 5209 5203 5197 5193 5194 5199 5200 5195 5190 5186 5186 5193 5204 5220 5226 5230 5233 5237 5239 5240 5240 5237 5239 5242 5244 5246 5250 5253
5179 5183 5181 5186 5192 5198 5202 5202 5205 5208 5213 5213 5214 5210 5214 5219 5222 5220 5225 5218 5214 5212 5208 5204 5204 5204 5202 5200 5198 5196 5194 5187 5183 5179 5173 5171 5171 5175 5184 5195 5207 5214 5218 5221 5225 5228 5230 5232 5234 5236 5238 5239 5242 5246
5165 5169 5172 5165 5175 5182 5186 5190 5196 5199 5197 5202 5203 5201 5206 5212 5211 5206 5208 5210 5208 5203 5200 5200 5198 5196 5197 5196 5194 5189 5182 5177 5175 5171 5164 5159 5158 5160 5165 5172 5180 5189 5196 5202 5206 5210 5214 5218 5221 5224 5227 5229 5230 5232